BAW475 EGLL-EDDF

Flight info

Callsign BAW475
Flight time N/A
Altitude 35000
Route BPK Q295 MATCH DCT REDFA DCT TACHA DCT NOLRU DCT DIXAT DIXAT1A
Aircraft B77W/H-SDE1E2E3FGHIJ2J3J4J5M1RWXY/LB1D1

Departure

Time N/A
Airport London Heathrow Airport (EGLL)

Arrival

Time 2026-05-05 19:55
Airport Frankfurt Main Airport (EDDF)
Time Latitude Longitude Altitude Speed Heading
2026-05-05 19:21 51.69194 5.49805 34861 ft 472 kts 116°
2026-05-05 19:21 51.67897 5.54740 34860 ft 472 kts 116°
2026-05-05 19:22 51.65352 5.64392 34885 ft 469 kts 116°
2026-05-05 19:22 51.62800 5.74029 34881 ft 467 kts 116°
2026-05-05 19:23 51.60232 5.83684 34878 ft 465 kts 116°
2026-05-05 19:23 51.57694 5.93187 34855 ft 463 kts 116°
2026-05-05 19:24 51.55141 6.02706 34857 ft 463 kts 116°
2026-05-05 19:24 51.52586 6.12198 34858 ft 463 kts 116°
2026-05-05 19:25 51.50022 6.21685 34855 ft 461 kts 116°
2026-05-05 19:25 51.48816 6.26356 34825 ft 445 kts 115°
2026-05-05 19:25 51.47712 6.30894 34834 ft 428 kts 115°
2026-05-05 19:26 51.46665 6.35272 34830 ft 413 kts 115°
2026-05-05 19:26 51.45636 6.39559 34843 ft 410 kts 115°
2026-05-05 19:26 51.43912 6.46645 34848 ft 410 kts 115°
2026-05-05 19:27 51.41470 6.56554 34835 ft 411 kts 115°
2026-05-05 19:27 51.39359 6.65069 34832 ft 412 kts 115°
2026-05-05 19:28 51.37596 6.72157 34823 ft 412 kts 115°
2026-05-05 19:28 51.35474 6.80660 34829 ft 411 kts 115°
2026-05-05 19:29 51.33288 6.89371 34804 ft 432 kts 115°
2026-05-05 19:29 51.31092 6.98131 34657 ft 414 kts 115°
2026-05-05 19:30 51.30030 7.02354 34357 ft 407 kts 115°
2026-05-05 19:30 51.28976 7.06523 33964 ft 402 kts 115°
2026-05-05 19:30 51.27867 7.10590 33328 ft 397 kts 122°
2026-05-05 19:30 51.26237 7.14144 32421 ft 399 kts 135°
2026-05-05 19:31 51.24143 7.17099 31503 ft 403 kts 145°
2026-05-05 19:31 51.21682 7.19245 30690 ft 404 kts 157°
2026-05-05 19:31 51.19077 7.21031 29735 ft 411 kts 154°
2026-05-05 19:31 51.16481 7.23106 28693 ft 422 kts 153°
2026-05-05 19:32 51.13865 7.25256 28125 ft 423 kts 153°
2026-05-05 19:32 51.11267 7.27353 27391 ft 421 kts 153°
2026-05-05 19:32 51.08645 7.29507 26623 ft 426 kts 152°
2026-05-05 19:32 51.06001 7.31698 26101 ft 426 kts 152°
2026-05-05 19:33 51.03358 7.33884 25931 ft 430 kts 152°
2026-05-05 19:33 51.00696 7.36080 25703 ft 432 kts 152°
2026-05-05 19:33 50.98027 7.38276 25027 ft 431 kts 152°
2026-05-05 19:33 50.95359 7.40469 24301 ft 429 kts 152°
2026-05-05 19:34 50.92716 7.42639 23634 ft 426 kts 153°
2026-05-05 19:34 50.90130 7.44760 22947 ft 423 kts 153°
2026-05-05 19:34 50.87528 7.46890 22213 ft 419 kts 153°
2026-05-05 19:35 50.82389 7.51087 20818 ft 412 kts 153°
2026-05-05 19:35 50.79845 7.53161 20126 ft 410 kts 153°
2026-05-05 19:35 50.77321 7.55218 19510 ft 406 kts 153°
2026-05-05 19:35 50.74819 7.57255 18952 ft 402 kts 153°
2026-05-05 19:36 50.72347 7.59265 18405 ft 398 kts 153°
2026-05-05 19:36 50.69884 7.61263 17814 ft 396 kts 153°
2026-05-05 19:36 50.67448 7.63238 17289 ft 390 kts 153°
2026-05-05 19:36 50.65220 7.65491 16849 ft 386 kts 140°
2026-05-05 19:37 50.63373 7.68579 16432 ft 391 kts 128°
2026-05-05 19:37 50.61916 7.72195 16011 ft 390 kts 119°
2026-05-05 19:37 50.60640 7.76011 15541 ft 396 kts 119°
2026-05-05 19:37 50.59342 7.79846 15225 ft 396 kts 120°
2026-05-05 19:38 50.58039 7.83672 15014 ft 394 kts 120°
2026-05-05 19:38 50.56747 7.87447 14813 ft 391 kts 120°
2026-05-05 19:38 50.55455 7.91206 14579 ft 390 kts 120°
2026-05-05 19:38 50.54166 7.94945 14330 ft 384 kts 120°
2026-05-05 19:39 50.52905 7.98599 13706 ft 377 kts 120°
2026-05-05 19:39 50.52073 8.01001 13133 ft 377 kts 120°
2026-05-05 19:40 50.45338 8.20354 9933 ft 366 kts 120°
2026-05-05 19:41 50.44119 8.23843 9808 ft 365 kts 120°
2026-05-05 19:41 50.42897 8.27331 9808 ft 364 kts 120°
2026-05-05 19:41 50.41676 8.30815 9805 ft 368 kts 120°
2026-05-05 19:41 50.40438 8.34340 9797 ft 368 kts 120°
2026-05-05 19:42 50.39210 8.37837 9792 ft 365 kts 120°
2026-05-05 19:42 50.37995 8.41293 9792 ft 354 kts 121°
2026-05-05 19:42 50.36835 8.44593 9780 ft 337 kts 121°
2026-05-05 19:42 50.35731 8.47727 9786 ft 320 kts 121°
2026-05-05 19:43 50.34682 8.50697 9780 ft 305 kts 121°
2026-05-05 19:43 50.33678 8.53536 9780 ft 292 kts 121°
2026-05-05 19:43 50.32685 8.56338 9792 ft 299 kts 122°
2026-05-05 19:43 50.31667 8.59203 9798 ft 302 kts 122°
2026-05-05 19:44 50.30647 8.62071 9794 ft 300 kts 122°
2026-05-05 19:44 50.29640 8.64909 9615 ft 296 kts 122°
2026-05-05 19:44 50.28660 8.67668 9117 ft 290 kts 122°
2026-05-05 19:44 50.27690 8.70392 8351 ft 285 kts 122°
2026-05-05 19:45 50.26729 8.73091 7509 ft 284 kts 122°
2026-05-05 19:45 50.25764 8.75797 7135 ft 289 kts 122°
2026-05-05 19:45 50.24774 8.78566 6997 ft 294 kts 122°
2026-05-05 19:45 50.23783 8.81338 6819 ft 289 kts 121°
2026-05-05 19:46 50.23090 8.84160 6791 ft 278 kts 101°
2026-05-05 19:46 50.22898 8.87237 6818 ft 287 kts 95°
2026-05-05 19:46 50.22809 8.90375 6817 ft 291 kts 94°
2026-05-05 19:46 50.22732 8.93537 6809 ft 290 kts 94°
2026-05-05 19:47 50.22660 8.96670 6792 ft 288 kts 94°
2026-05-05 19:47 50.22464 8.99728 6786 ft 280 kts 109°
2026-05-05 19:47 50.21526 9.02374 6794 ft 281 kts 136°
2026-05-05 19:47 50.19954 9.04036 6787 ft 267 kts 163°
2026-05-05 19:48 50.18175 9.04753 6814 ft 262 kts 172°
2026-05-05 19:48 50.16416 9.05248 6644 ft 259 kts 173°
2026-05-05 19:48 50.14621 9.05717 6366 ft 257 kts 173°
2026-05-05 19:48 50.12898 9.06044 6118 ft 247 kts 185°
2026-05-05 19:49 50.11305 9.05296 5779 ft 231 kts 216°
2026-05-05 19:49 50.10548 9.04174 5476 ft 226 kts 236°
2026-05-05 19:49 50.10025 9.01125 4800 ft 225 kts 269°
2026-05-05 19:49 50.10112 8.98692 4281 ft 225 kts 273°
2026-05-05 19:50 50.10246 8.96242 4093 ft 234 kts 273°
2026-05-05 19:50 50.10383 8.93712 4010 ft 233 kts 273°
2026-05-05 19:50 50.10519 8.91253 3991 ft 224 kts 274°
2026-05-05 19:50 50.10652 8.88886 3979 ft 213 kts 272°
2026-05-05 19:51 50.10495 8.86720 3992 ft 193 kts 254°
2026-05-05 19:51 50.10134 8.84682 3846 ft 198 kts 252°
2026-05-05 19:51 50.09708 8.82659 3607 ft 196 kts 250°
2026-05-05 19:51 50.09244 8.80658 3330 ft 195 kts 250°
2026-05-05 19:52 50.08778 8.78691 3072 ft 192 kts 250°
2026-05-05 19:52 50.08317 8.76754 2803 ft 188 kts 249°
2026-05-05 19:52 50.07871 8.74882 2545 ft 183 kts 249°
2026-05-05 19:52 50.07423 8.73001 2335 ft 187 kts 249°
2026-05-05 19:53 50.06966 8.71082 2073 ft 190 kts 249°
2026-05-05 19:53 50.06510 8.69163 1810 ft 189 kts 249°
2026-05-05 19:53 50.06054 8.67249 1561 ft 188 kts 249°
2026-05-05 19:53 50.05601 8.65348 1296 ft 187 kts 249°
2026-05-05 19:54 50.05159 8.63492 1031 ft 176 kts 249°
2026-05-05 19:54 50.04758 8.61805 826 ft 156 kts 249°
2026-05-05 19:54 50.04392 8.60276 622 ft 146 kts 249°
2026-05-05 19:54 50.04056 8.58864 461 ft 139 kts 249°
2026-05-05 19:55 50.03726 8.57445 372 ft 132 kts 249°
2026-05-05 19:55 50.03439 8.56281 370 ft 94 kts 249°
2026-05-05 19:55 50.03266 8.55549 356 ft 50 kts 250°
2026-05-05 19:55 50.03173 8.55139 359 ft 28 kts 262°
2026-05-05 19:56 50.03192 8.54834 354 ft 28 kts 280°
2026-05-05 19:56 50.03213 8.54658 351 ft 10 kts 279°
2026-05-05 19:56 50.03216 8.54638 356 ft 0 kts 279°
2026-05-05 19:56 50.03216 8.54635 356 ft 1 kts 279°
2026-05-05 19:57 50.03217 8.54623 357 ft 2 kts 281°
2026-05-05 19:57 50.03220 8.54608 346 ft 2 kts 284°
2026-05-05 19:57 50.03233 8.54581 367 ft 3 kts 330°
2026-05-05 19:57 50.03250 8.54585 358 ft 3 kts 21°
2026-05-05 19:58 50.03268 8.54604 362 ft 9 kts 40°
2026-05-05 19:58 50.03303 8.54689 363 ft 10 kts 65°
2026-05-05 19:58 50.03336 8.54819 364 ft 10 kts 69°
2026-05-05 19:58 50.03360 8.54920 363 ft 11 kts 70°
2026-05-05 19:59 50.03379 8.54998 363 ft 12 kts 70°
2026-05-05 19:59 50.03415 8.55150 356 ft 21 kts 70°
2026-05-05 19:59 50.03470 8.55384 358 ft 20 kts 70°
2026-05-05 19:59 50.03519 8.55586 362 ft 20 kts 70°
2026-05-05 20:00 50.03569 8.55794 366 ft 20 kts 70°
2026-05-05 20:00 50.03617 8.55997 367 ft 20 kts 70°
2026-05-05 20:00 50.03665 8.56201 370 ft 20 kts 69°
2026-05-05 20:00 50.03716 8.56405 367 ft 20 kts 69°
2026-05-05 20:01 50.03766 8.56612 366 ft 20 kts 70°
2026-05-05 20:01 50.03813 8.56816 364 ft 21 kts 70°
2026-05-05 20:01 50.03863 8.57030 364 ft 21 kts 69°
2026-05-05 20:01 50.03914 8.57245 364 ft 21 kts 69°
2026-05-05 20:02 50.03967 8.57459 368 ft 21 kts 69°
2026-05-05 20:02 50.04024 8.57689 362 ft 24 kts 69°
2026-05-05 20:02 50.04083 8.57930 363 ft 24 kts 69°
2026-05-05 20:02 50.04109 8.58039 364 ft 0 kts 69°
2026-05-05 20:03 50.04112 8.58051 364 ft 2 kts 69°
2026-05-05 20:03 50.04117 8.58070 362 ft 3 kts 71°
2026-05-05 20:03 50.04138 8.58165 361 ft 11 kts 71°
2026-05-05 20:03 50.04166 8.58291 363 ft 13 kts 70°
2026-05-05 20:04 50.04199 8.58428 366 ft 14 kts 70°
2026-05-05 20:04 50.04231 8.58565 368 ft 14 kts 70°
2026-05-05 20:04 50.04283 8.58782 362 ft 25 kts 70°
2026-05-05 20:04 50.04345 8.59046 361 ft 27 kts 70°
2026-05-05 20:05 50.04405 8.59292 365 ft 16 kts 69°
2026-05-05 20:05 50.04436 8.59419 368 ft 11 kts 67°
2026-05-05 20:05 50.04500 8.59474 367 ft 10 kts
2026-05-05 20:05 50.04543 8.59470 365 ft 0 kts 355°
2026-05-05 20:06 50.04572 8.59466 365 ft 8 kts 355°
2026-05-05 20:06 50.04635 8.59457 366 ft 10 kts 355°
2026-05-05 20:06 50.04709 8.59438 367 ft 12 kts 343°
2026-05-05 20:07 50.04794 8.59395 364 ft 13 kts 341°
2026-05-05 20:07 50.04880 8.59361 366 ft 7 kts 348°
2026-05-05 20:07 50.04888 8.59357 365 ft 0 kts 345°
2026-05-05 20:08 50.04865 8.59367 368 ft 9 kts 345°
2026-05-05 20:08 50.04854 8.59371 365 ft 0 kts 345°
2026-05-05 20:09 50.04855 8.59371 365 ft 2 kts 345°
2026-05-05 20:09 50.04888 8.59357 365 ft 6 kts 345°
2026-05-05 20:09 50.04926 8.59341 369 ft 6 kts 345°
2026-05-05 20:09 50.04963 8.59325 367 ft 6 kts 345°
2026-05-05 20:10 50.05002 8.59314 365 ft 6 kts 354°
2026-05-05 20:10 50.05042 8.59306 370 ft 6 kts 350°
2026-05-05 20:10 50.05079 8.59277 371 ft 6 kts 300°
2026-05-05 20:10 50.05075 8.59200 371 ft 9 kts 256°
2026-05-05 20:11 50.05057 8.59084 369 ft 13 kts 256°
2026-05-05 20:11 50.05031 8.58947 364 ft 12 kts 251°
2026-05-05 20:11 50.05000 8.58807 361 ft 15 kts 251°
2026-05-05 20:11 50.04947 8.58644 357 ft 19 kts 234°
2026-05-05 20:12 50.04896 8.58456 356 ft 19 kts 249°
2026-05-05 20:12 50.04866 8.58325 362 ft 6 kts 250°
2026-05-05 20:12 50.04851 8.58258 358 ft 7 kts 250°
2026-05-05 20:12 50.04842 8.58222 362 ft 0 kts 250°